Observations for Trim Patrick St
| Time | AQI | Temp °C | Hum % | Pres Pa | CO μg/m³ | H₂S μg/m³ | NO μg/m³ | NO₂ μg/m³ | O₃ μg/m³ | SO₂ μg/m³ | PM1 μg/m³ | PM2.5 μg/m³ | PM10 μg/m³ |
|---|---|---|---|---|---|---|---|---|---|---|---|---|---|
| Friday 31 July 2026 | |||||||||||||
| 09:59 | 1 | 25.2 | 43 | 68,906 | 0 | 0 | 1.87 | 7.58 | 65.98 | 5.52 | 3.71 | 9.18 | 10.1 |
| 09:58 | 1 | 25.2 | 43 | 68,910 | 0 | 0 | 1.88 | 7.05 | 68.26 | 6.64 | 3.71 | 9.19 | 10.11 |
| 09:57 | 1 | 25.2 | 41 | 68,918 | 0 | 0 | 1.95 | 0 | 30.52 | 6.44 | 2.86 | 7.76 | 8.53 |
| 09:56 | 1 | 25.2 | 43 | 68,898 | 0 | 0 | 1.88 | 6.99 | 41.89 | 6.33 | 3.71 | 9.95 | 10.94 |
| 09:55 | 1 | 25.3 | 42 | 68,896 | 0 | 0 | 1.82 | 5.27 | 62.93 | 6.25 | 3.71 | 8.44 | 9.29 |
| 09:54 | 1 | 25.3 | 45 | 68,900 | 0 | 0 | 1.79 | 3.55 | 45.9 | 5.95 | 3.71 | 9.04 | 9.95 |
| 09:53 | 1 | 25.3 | 44 | 68,906 | 0 | 0 | 1.84 | 1.47 | 38.97 | 6.57 | 3.71 | 9.14 | 10.05 |
| 09:51 | 1 | 25.2 | 45 | 68,912 | 0 | 0 | 1.85 | 7.99 | 66.53 | 7.59 | 2.86 | 9.07 | 9.98 |
| 09:50 | 1 | 25.2 | 44 | 68,912 | 0 | 0 | 1.83 | 9.49 | 66.48 | 5.87 | 2.86 | 8.33 | 9.16 |
| 09:49 | 1 | 25.2 | 45 | 68,912 | 0 | 0 | 1.84 | 3.19 | 39.25 | 6.61 | 2.86 | 9.8 | 10.78 |
| 09:48 | 1 | 25.2 | 44 | 68,884 | 0 | 0 | 1.83 | 5.49 | 63.23 | 6.48 | 2.86 | 8.31 | 9.14 |
| 09:47 | 1 | 25.2 | 42 | 68,902 | 0 | 0 | 1.9 | 1.46 | 32.97 | 6.39 | 2.86 | 9.24 | 10.17 |
| 09:46 | 1 | 25.2 | 45 | 68,904 | 0 | 0 | 1.84 | 6.94 | 56.39 | 5.99 | 2.86 | 8.26 | 9.09 |
| 09:44 | 1 | 25.3 | 43 | 68,902 | 0 | 0 | 1.8 | 6.02 | 55.31 | 6.46 | 2.86 | 8.38 | 9.22 |
| 09:43 | 1 | 25.3 | 44 | 68,928 | 0 | 0 | 1.8 | 5.08 | 55 | 7.12 | 2.86 | 8.36 | 9.2 |
| 09:42 | 1 | 25.3 | 45 | 68,932 | 0 | 0 | 1.76 | 4.51 | 40.32 | 6.42 | 3.71 | 9.03 | 9.93 |
| 09:41 | 1 | 25.3 | 46 | 68,934 | 0 | 0 | 1.71 | 6.46 | 48.44 | 5.89 | 2 | 7.46 | 8.2 |
| 09:40 | 1 | 25.3 | 46 | 68,941 | 0 | 0 | 1.71 | 2.89 | 27.73 | 6.37 | 3.71 | 8.21 | 9.03 |
| 09:39 | 1 | 25.2 | 48 | 68,947 | 0 | 0 | 1.8 | 6.91 | 42.13 | 5.82 | 3.71 | 8.84 | 9.72 |
| 09:38 | 1 | 25.1 | 47 | 68,953 | 0 | 0 | 1.88 | 7.66 | 61.73 | 6.24 | 3.71 | 9.71 | 10.68 |